Voltar ao catálogo

STARLINK-3342

AtivoComunicaçõesVLEO
NORAD 50816·PAYLOAD·🇺🇸 United States

Lançado Jan 6, 2022 de Cape Canaveral Space Force Station

Loading…

Próximas Passagens (próximas 24 horas)

TLE

AtualizadoSource: CelesTrak SupGP

Época: Sep 15, 2026, 01:09 UTC

1 50816C 22001P   26258.04840278 -.00018743  00000+0 -83762-3 0  2582
2 50816  53.2166  26.2560 0002237  79.2939 268.6895 15.20821397    12

Acompanhe STARLINK-3342 em tempo real com AllMySat

Download on the App Store